DELTA 1 DEB, 42649

Orbit data source: Space-Track

DELTA 1 DEB, 42649 is space debris in SSO originally from a launch on Thu, 12 Jun 1975 UTC launched from the Air Force Western Test Range (AFWTR). Debris objects in space refer to the collection of defunct objects orbiting the Earth. Examples of debris include non-operational satellites, rocket bodies, and fragments generated from explosions, collisions, or faulty payload assembly.

Loading next visibility...
Identifier
42649, 1975-052MJ
Orbit
SSO
Country
Flag of USUS
Related business
Manufacturer
Unknown
Mission
Spacecraft
Bus & Motor
Unknown
Mass
Unknown
Launch date (UTC)
1975-06-12 (51 years ago)
Launch vehicle
Unknown
Launch site
Air Force Western Test Range (AFWTR)
Object type
Payload
Rocket body
Debris
Shape & HBR
Unknown shape, 0.1 m
Radar Cross Section
Small (<0.1 m²)

Expand to show TLE details & history
Last TLE update: 2 days ago

TLE from 2 days ago
0 DELTA 1 DEB
1 42649U 75052MJ  26171.38720840 -.00000003  00000-0  73485-4 0  9998
2 42649  99.7551  38.4330 0034610 228.4139 131.4021 13.39204508619404
Epoch: 2026-06-20T09:17Z
TLE epoch observation values (Epoch: 2026-06-20T09:17:34.805Z)
Latitude
-0.00005°
Longitude
-9.56457°
Altitude
1,132.211 km
Speed
7.278 km/s
True Right ascension
02h 33m 43s
True Declination
0° 00' 00"
Sunlit
Object was in daylight at epoch
Visualization orbit readout
Latitude
Unknown
Longitude
Unknown
Altitude
Unknown
Speed
Unknown
Apparent Right ascension
Unknown
Apparent Declination
Unknown
Sunlit
N/A
Visualization observer readout
Local Sidereal Time
21:42:46
Azimuth
Unknown
Elevation
Unknown
Doppler factor
Unknown
Orbital elements
Apogee altitude
1,135.477 km
Perigee altitude
1,083.648 km
Semi-major axis
7,487.7 km
Eccentricity
0.00346
Inclination
99.7551°
RAAN
38.433°
Arg. of periapsis
228.4139°
True anomaly
131.69874°
Mean anomaly
131.4021°
Eccentric anomaly
131.5505°
Mean motion
3.34981 °/min
Orbital period
107.47 mins
BSTAR
0.000073485
Loading maneuver chart data...
Computing Atmospheric mass density...
Loading historical data...
Loading historical data...
Loading historical data...
Loading historical data...
Loading historical data...
Loading historical data...
Loading historical data...

Documentation

Showing up to 5 results
|